JST504 YMML-YSSY

Flight info

Callsign JST504
Flight time 1h 6m
Altitude 37000
Route ML H129 DOSEL Y59 RIVET
Aircraft A321/M-SDE3FGHIRWY/LB1

Departure

Time 2026-04-21 01:10
Airport Melbourne Airport (YMML)

Arrival

Time 2026-04-21 02:17
Airport Sydney Kingsford Smith International Airport (YSSY)
Time Latitude Longitude Altitude Speed Heading
2026-04-21 00:44 -37.67350 144.84677 442 ft 0 kts 352°
2026-04-21 00:57 -37.67360 144.84679 442 ft 2 kts 351°
2026-04-21 00:57 -37.67370 144.84680 442 ft 2 kts 348°
2026-04-21 00:58 -37.67382 144.84691 442 ft 2 kts 303°
2026-04-21 00:58 -37.67387 144.84708 442 ft 1 kts 269°
2026-04-21 00:58 -37.67386 144.84717 442 ft 1 kts 257°
2026-04-21 00:58 -37.67386 144.84721 442 ft 0 kts 261°
2026-04-21 00:59 -37.67386 144.84720 442 ft 0 kts 261°
2026-04-21 01:02 -37.67401 144.84689 442 ft 9 kts 225°
2026-04-21 01:02 -37.67445 144.84628 442 ft 9 kts 247°
2026-04-21 01:03 -37.67458 144.84551 442 ft 0 kts 262°
2026-04-21 01:03 -37.67459 144.84541 442 ft 2 kts 262°
2026-04-21 01:03 -37.67465 144.84482 442 ft 7 kts 262°
2026-04-21 01:03 -37.67473 144.84413 442 ft 8 kts 262°
2026-04-21 01:04 -37.67483 144.84351 442 ft 3 kts 255°
2026-04-21 01:04 -37.67521 144.84331 442 ft 10 kts 181°
2026-04-21 01:04 -37.67597 144.84343 442 ft 11 kts 171°
2026-04-21 01:04 -37.67680 144.84358 442 ft 12 kts 171°
2026-04-21 01:05 -37.67768 144.84366 442 ft 12 kts 192°
2026-04-21 01:05 -37.67841 144.84306 442 ft 12 kts 237°
2026-04-21 01:05 -37.67859 144.84216 442 ft 9 kts 261°
2026-04-21 01:05 -37.67868 144.84152 442 ft 4 kts 261°
2026-04-21 01:06 -37.67871 144.84125 442 ft 2 kts 259°
2026-04-21 01:06 -37.67873 144.84109 442 ft 0 kts 261°
2026-04-21 01:09 -37.67875 144.84094 442 ft 3 kts 261°
2026-04-21 01:09 -37.67882 144.84038 442 ft 10 kts 261°
2026-04-21 01:09 -37.67884 144.83980 442 ft 4 kts 301°
2026-04-21 01:10 -37.67828 144.83962 442 ft 21 kts 353°
2026-04-21 01:10 -37.67381 144.83881 442 ft 109 kts 352°
2026-04-21 01:10 -37.66404 144.83691 632 ft 165 kts 353°
2026-04-21 01:10 -37.65250 144.83469 1433 ft 177 kts 352°
2026-04-21 01:11 -37.64030 144.83226 2413 ft 182 kts 351°
2026-04-21 01:11 -37.62801 144.82971 3112 ft 182 kts 350°
2026-04-21 01:11 -37.61526 144.82695 3560 ft 194 kts 349°
2026-04-21 01:11 -37.60179 144.82416 4068 ft 203 kts 353°
2026-04-21 01:12 -37.58773 144.82434 4591 ft 213 kts
2026-04-21 01:12 -37.57315 144.82971 5093 ft 230 kts 21°
2026-04-21 01:12 -37.55886 144.84058 5524 ft 249 kts 28°
2026-04-21 01:12 -37.54342 144.85153 6022 ft 261 kts 23°
2026-04-21 01:13 -37.52728 144.86165 6735 ft 266 kts 21°
2026-04-21 01:13 -37.51065 144.87177 7470 ft 269 kts 21°
2026-04-21 01:13 -37.49364 144.88205 8176 ft 274 kts 21°
2026-04-21 01:13 -37.47655 144.89238 8856 ft 278 kts 20°
2026-04-21 01:14 -37.45884 144.90309 9530 ft 283 kts 20°
2026-04-21 01:14 -37.44191 144.91559 10153 ft 293 kts 32°
2026-04-21 01:14 -37.42668 144.93376 10567 ft 312 kts 46°
2026-04-21 01:14 -37.41330 144.95616 10868 ft 331 kts 51°
2026-04-21 01:15 -37.39989 144.98033 11208 ft 346 kts 51°
2026-04-21 01:15 -37.38609 145.00540 11767 ft 352 kts 52°
2026-04-21 01:15 -37.37194 145.03098 12380 ft 356 kts 51°
2026-04-21 01:15 -37.35770 145.05650 12966 ft 361 kts 51°
2026-04-21 01:16 -37.34323 145.08226 13548 ft 365 kts 51°
2026-04-21 01:16 -37.32858 145.10825 14119 ft 369 kts 51°
2026-04-21 01:16 -37.31368 145.13455 14680 ft 374 kts 50°
2026-04-21 01:16 -37.29844 145.16142 15259 ft 377 kts 50°
2026-04-21 01:17 -37.28328 145.18813 15809 ft 381 kts 50°
2026-04-21 01:17 -37.26775 145.21542 16341 ft 385 kts 50°
2026-04-21 01:17 -37.25221 145.24275 16869 ft 389 kts 50°
2026-04-21 01:17 -37.23634 145.27060 17404 ft 393 kts 50°
2026-04-21 01:18 -37.22041 145.29852 17920 ft 396 kts 50°
2026-04-21 01:18 -37.20444 145.32648 18426 ft 400 kts 50°
2026-04-21 01:18 -37.18835 145.35465 18949 ft 402 kts 49°
2026-04-21 01:18 -37.17193 145.38341 19476 ft 405 kts 49°
2026-04-21 01:19 -37.15545 145.41229 19959 ft 408 kts 49°
2026-04-21 01:19 -37.13902 145.44110 20423 ft 411 kts 49°
2026-04-21 01:19 -37.12234 145.47031 20879 ft 415 kts 49°
2026-04-21 01:19 -37.10566 145.49945 21327 ft 418 kts 49°
2026-04-21 01:20 -37.08863 145.52911 21770 ft 421 kts 49°
2026-04-21 01:20 -37.07163 145.55872 22208 ft 423 kts 49°
2026-04-21 01:20 -37.05433 145.58879 22643 ft 426 kts 49°
2026-04-21 01:20 -37.03708 145.61879 23128 ft 427 kts 49°
2026-04-21 01:21 -37.01972 145.64894 23649 ft 427 kts 49°
2026-04-21 01:21 -37.00248 145.67894 24060 ft 428 kts 48°
2026-04-21 01:21 -36.98502 145.70932 24438 ft 431 kts 48°
2026-04-21 01:21 -36.96764 145.73952 24802 ft 433 kts 48°
2026-04-21 01:22 -36.94987 145.77033 25167 ft 436 kts 48°
2026-04-21 01:22 -36.93229 145.80074 25515 ft 438 kts 48°
2026-04-21 01:22 -36.91436 145.83171 25856 ft 441 kts 48°
2026-04-21 01:22 -36.89644 145.86263 26190 ft 443 kts 47°
2026-04-21 01:23 -36.87827 145.89360 26569 ft 443 kts 53°
2026-04-21 01:23 -36.85994 145.92415 27419 ft 431 kts 53°
2026-04-21 01:23 -36.84274 145.95361 28207 ft 420 kts 54°
2026-04-21 01:23 -36.82585 145.98277 28709 ft 417 kts 54°
2026-04-21 01:24 -36.80873 146.01230 28985 ft 419 kts 54°
2026-04-21 01:24 -36.79159 146.04182 29130 ft 424 kts 54°
2026-04-21 01:24 -36.77420 146.07169 29266 ft 430 kts 54°
2026-04-21 01:24 -36.75662 146.10182 29482 ft 433 kts 54°
2026-04-21 01:25 -36.73896 146.13207 29741 ft 434 kts 54°
2026-04-21 01:25 -36.72127 146.16231 29995 ft 436 kts 54°
2026-04-21 01:25 -36.70325 146.19308 30243 ft 437 kts 54°
2026-04-21 01:25 -36.68549 146.22339 30480 ft 439 kts 54°
2026-04-21 01:26 -36.66731 146.25438 30715 ft 441 kts 54°
2026-04-21 01:26 -36.64929 146.28507 30941 ft 442 kts 54°
2026-04-21 01:26 -36.63123 146.31580 31162 ft 444 kts 54°
2026-04-21 01:26 -36.61310 146.34662 31379 ft 445 kts 54°
2026-04-21 01:27 -36.59465 146.37795 31649 ft 445 kts 54°
2026-04-21 01:27 -36.57653 146.40869 31955 ft 444 kts 54°
2026-04-21 01:27 -36.55838 146.43945 32254 ft 443 kts 54°
2026-04-21 01:27 -36.54011 146.47040 32538 ft 443 kts 54°
2026-04-21 01:28 -36.52185 146.50128 32811 ft 442 kts 54°
2026-04-21 01:28 -36.50384 146.53174 33075 ft 442 kts 54°
2026-04-21 01:28 -36.48577 146.56226 33335 ft 441 kts 54°
2026-04-21 01:28 -36.46754 146.59302 33592 ft 441 kts 54°
2026-04-21 01:29 -36.44951 146.62341 33840 ft 440 kts 54°
2026-04-21 01:29 -36.43121 146.65424 34087 ft 440 kts 53°
2026-04-21 01:29 -36.41337 146.68437 34323 ft 439 kts 53°
2026-04-21 01:29 -36.39524 146.71500 34557 ft 439 kts 53°
2026-04-21 01:30 -36.37719 146.74542 34784 ft 438 kts 53°
2026-04-21 01:30 -36.35915 146.77574 35006 ft 438 kts 53°
2026-04-21 01:30 -36.34118 146.80589 35215 ft 438 kts 53°
2026-04-21 01:30 -36.32321 146.83598 35392 ft 438 kts 53°
2026-04-21 01:31 -36.30487 146.86667 35551 ft 439 kts 53°
2026-04-21 01:31 -36.28697 146.89659 35700 ft 440 kts 53°
2026-04-21 01:31 -36.26876 146.92696 35851 ft 440 kts 53°
2026-04-21 01:31 -36.25035 146.95763 36000 ft 441 kts 53°
2026-04-21 01:32 -36.23216 146.98789 36143 ft 441 kts 53°
2026-04-21 01:32 -36.21401 147.01807 36277 ft 442 kts 53°
2026-04-21 01:32 -36.19555 147.04877 36406 ft 443 kts 53°
2026-04-21 01:32 -36.17735 147.07906 36527 ft 443 kts 53°
2026-04-21 01:33 -36.15900 147.10969 36646 ft 444 kts 53°
2026-04-21 01:33 -36.14050 147.14055 36762 ft 445 kts 53°
2026-04-21 01:33 -36.12226 147.17090 36873 ft 445 kts 53°
2026-04-21 01:33 -36.10367 147.20175 36982 ft 446 kts 53°
2026-04-21 01:34 -36.06662 147.26312 36996 ft 447 kts 53°
2026-04-21 01:34 -36.02964 147.32422 37000 ft 447 kts 53°
2026-04-21 01:35 -35.99243 147.38554 37001 ft 447 kts 53°
2026-04-21 01:35 -35.95512 147.44693 37001 ft 447 kts 53°
2026-04-21 01:36 -35.91782 147.50813 37001 ft 447 kts 53°
2026-04-21 01:36 -35.88047 147.56909 37001 ft 447 kts 53°
2026-04-21 01:37 -35.84308 147.62990 37001 ft 447 kts 53°
2026-04-21 01:37 -35.80568 147.69124 37001 ft 447 kts 53°
2026-04-21 01:38 -35.76857 147.75212 37001 ft 447 kts 53°
2026-04-21 01:38 -35.73128 147.81297 37001 ft 447 kts 53°
2026-04-21 01:39 -35.69376 147.87405 37001 ft 447 kts 53°
2026-04-21 01:39 -35.65646 147.93462 37001 ft 447 kts 53°
2026-04-21 01:40 -35.61880 147.99564 37001 ft 447 kts 53°
2026-04-21 01:40 -35.58149 148.05597 37001 ft 447 kts 53°
2026-04-21 01:41 -35.54384 148.11673 37001 ft 447 kts 53°
2026-04-21 01:41 -35.50642 148.17699 37001 ft 447 kts 53°
2026-04-21 01:42 -35.46865 148.23766 37001 ft 447 kts 53°
2026-04-21 01:42 -35.43100 148.29808 37001 ft 447 kts 53°
2026-04-21 01:43 -35.39358 148.35832 37001 ft 447 kts 53°
2026-04-21 01:43 -35.35598 148.41866 37001 ft 447 kts 53°
2026-04-21 01:44 -35.31835 148.47885 37001 ft 447 kts 53°
2026-04-21 01:44 -35.28050 148.53925 37001 ft 447 kts 53°
2026-04-21 01:45 -35.24289 148.59914 37001 ft 447 kts 53°
2026-04-21 01:45 -35.20489 148.65956 37001 ft 447 kts 52°
2026-04-21 01:46 -35.16718 148.71967 37001 ft 447 kts 52°
2026-04-21 01:46 -35.12976 148.77911 36649 ft 441 kts 52°
2026-04-21 01:47 -35.11104 148.80876 36064 ft 440 kts 52°
2026-04-21 01:47 -35.09254 148.83801 35508 ft 438 kts 52°
2026-04-21 01:47 -35.07413 148.86708 34935 ft 437 kts 52°
2026-04-21 01:47 -35.05560 148.89632 34285 ft 437 kts 52°
2026-04-21 01:48 -35.03700 148.92564 33590 ft 439 kts 52°
2026-04-21 01:48 -35.01837 148.95499 32883 ft 440 kts 52°
2026-04-21 01:48 -34.99976 148.98428 32173 ft 442 kts 52°
2026-04-21 01:48 -34.98082 149.01407 31446 ft 443 kts 52°
2026-04-21 01:49 -34.96194 149.04372 30756 ft 443 kts 52°
2026-04-21 01:49 -34.94333 149.07292 30261 ft 439 kts 52°
2026-04-21 01:49 -34.92472 149.10210 29776 ft 434 kts 52°
2026-04-21 01:49 -34.90648 149.13066 29265 ft 430 kts 52°
2026-04-21 01:50 -34.88800 149.15950 28737 ft 427 kts 52°
2026-04-21 01:50 -34.86993 149.18753 28221 ft 423 kts 52°
2026-04-21 01:50 -34.85192 149.21547 27705 ft 420 kts 52°
2026-04-21 01:50 -34.83401 149.24332 27189 ft 417 kts 52°
2026-04-21 01:51 -34.81619 149.27106 26672 ft 413 kts 52°
2026-04-21 01:51 -34.79881 149.29813 26165 ft 410 kts 52°
2026-04-21 01:51 -34.78215 149.32408 25676 ft 407 kts 52°
2026-04-21 01:51 -34.76497 149.35095 25168 ft 404 kts 53°
2026-04-21 01:52 -34.74870 149.37837 24663 ft 400 kts 56°
2026-04-21 01:52 -34.72013 149.43547 23662 ft 394 kts 62°
2026-04-21 01:52 -34.70726 149.46498 23162 ft 391 kts 62°
2026-04-21 01:53 -34.69467 149.49394 22671 ft 388 kts 62°
2026-04-21 01:53 -34.68215 149.52272 22183 ft 386 kts 62°
2026-04-21 01:53 -34.66960 149.55148 21698 ft 383 kts 62°
2026-04-21 01:53 -34.65733 149.57959 21227 ft 380 kts 62°
2026-04-21 01:54 -34.64504 149.60771 20757 ft 377 kts 62°
2026-04-21 01:54 -34.63279 149.63568 20291 ft 375 kts 62°
2026-04-21 01:54 -34.62058 149.66357 19829 ft 372 kts 62°
2026-04-21 01:54 -34.60863 149.69095 19377 ft 369 kts 62°
2026-04-21 01:55 -34.59656 149.71855 18919 ft 367 kts 62°
2026-04-21 01:55 -34.58470 149.74562 18469 ft 364 kts 62°
2026-04-21 01:55 -34.57281 149.77267 18019 ft 362 kts 62°
2026-04-21 01:55 -34.56101 149.79950 17571 ft 359 kts 62°
2026-04-21 01:56 -34.54933 149.82599 17129 ft 357 kts 62°
2026-04-21 01:56 -34.53770 149.85234 16689 ft 355 kts 62°
2026-04-21 01:56 -34.52606 149.87871 16247 ft 352 kts 62°
2026-04-21 01:56 -34.51458 149.90469 15812 ft 350 kts 62°
2026-04-21 01:57 -34.50323 149.93042 15380 ft 348 kts 62°
2026-04-21 01:57 -34.49184 149.95628 14944 ft 346 kts 62°
2026-04-21 01:57 -34.48065 149.98167 14519 ft 343 kts 62°
2026-04-21 01:57 -34.46944 150.00707 14092 ft 341 kts 62°
2026-04-21 01:58 -34.45822 150.03244 13664 ft 339 kts 62°
2026-04-21 01:58 -34.44725 150.05721 13247 ft 337 kts 62°
2026-04-21 01:58 -34.43614 150.08228 12823 ft 335 kts 62°
2026-04-21 01:58 -34.42518 150.10696 12406 ft 333 kts 62°
2026-04-21 01:59 -34.41428 150.13147 11991 ft 331 kts 62°
2026-04-21 01:59 -34.40345 150.15584 11579 ft 329 kts 62°
2026-04-21 01:59 -34.39269 150.17999 11233 ft 325 kts 62°
2026-04-21 01:59 -34.38193 150.20415 10983 ft 326 kts 62°
2026-04-21 02:00 -34.37117 150.22829 10732 ft 325 kts 62°
2026-04-21 02:00 -34.36062 150.25194 10480 ft 320 kts 62°
2026-04-21 02:00 -34.35006 150.27560 10175 ft 315 kts 62°
2026-04-21 02:00 -34.33978 150.29860 9902 ft 309 kts 62°
2026-04-21 02:01 -34.32961 150.32134 9680 ft 302 kts 62°
2026-04-21 02:01 -34.31970 150.34345 9469 ft 295 kts 62°
2026-04-21 02:01 -34.31010 150.36488 9305 ft 286 kts 62°
2026-04-21 02:01 -34.30064 150.38599 9180 ft 285 kts 62°
2026-04-21 02:02 -34.29134 150.40675 9057 ft 284 kts 62°
2026-04-21 02:02 -34.28190 150.42781 8932 ft 284 kts 62°
2026-04-21 02:02 -34.27248 150.44891 8806 ft 283 kts 62°
2026-04-21 02:02 -34.26321 150.46973 8682 ft 283 kts 62°
2026-04-21 02:03 -34.25389 150.49059 8557 ft 282 kts 62°
2026-04-21 02:03 -34.24458 150.51143 8433 ft 282 kts 62°
2026-04-21 02:03 -34.23526 150.53224 8308 ft 281 kts 62°
2026-04-21 02:03 -34.22604 150.55280 8184 ft 280 kts 62°
2026-04-21 02:04 -34.21674 150.57352 8059 ft 280 kts 62°
2026-04-21 02:04 -34.20748 150.59413 7935 ft 279 kts 62°
2026-04-21 02:04 -34.19825 150.61470 7901 ft 279 kts 62°
2026-04-21 02:04 -34.18886 150.63562 7896 ft 279 kts 62°
2026-04-21 02:05 -34.17969 150.65605 7893 ft 279 kts 61°
2026-04-21 02:05 -34.17042 150.67682 7771 ft 279 kts 61°
2026-04-21 02:05 -34.16127 150.69730 7646 ft 278 kts 61°
2026-04-21 02:05 -34.15205 150.71785 7521 ft 278 kts 61°
2026-04-21 02:06 -34.14292 150.73811 7397 ft 277 kts 61°
2026-04-21 02:06 -34.13369 150.75864 7271 ft 277 kts 62°
2026-04-21 02:06 -34.12315 150.77794 7132 ft 276 kts 44°
2026-04-21 02:06 -34.10713 150.79028 7008 ft 276 kts 18°
2026-04-21 02:07 -34.08818 150.79314 6894 ft 275 kts 358°
2026-04-21 02:07 -34.06932 150.79416 6753 ft 275 kts 14°
2026-04-21 02:07 -34.05188 150.80310 6633 ft 274 kts 29°
2026-04-21 02:07 -34.03547 150.81514 6508 ft 274 kts 32°
2026-04-21 02:08 -34.01967 150.82745 6384 ft 273 kts 33°
2026-04-21 02:08 -34.00375 150.83998 6216 ft 270 kts 33°
2026-04-21 02:08 -33.98809 150.85234 5863 ft 270 kts 33°
2026-04-21 02:08 -33.97238 150.86475 5516 ft 270 kts 33°
2026-04-21 02:09 -33.95679 150.87705 5194 ft 268 kts 33°
2026-04-21 02:09 -33.94125 150.88931 4873 ft 267 kts 33°
2026-04-21 02:09 -33.92578 150.90150 4553 ft 266 kts 33°
2026-04-21 02:09 -33.91033 150.91370 4234 ft 265 kts 33°
2026-04-21 02:10 -33.89493 150.92583 3955 ft 262 kts 33°
2026-04-21 02:10 -33.87975 150.93770 3903 ft 263 kts 33°
2026-04-21 02:10 -33.86442 150.94965 3887 ft 262 kts 33°
2026-04-21 02:10 -33.84917 150.96153 3621 ft 260 kts 33°
2026-04-21 02:11 -33.83419 150.97319 3203 ft 258 kts 33°
2026-04-21 02:11 -33.81900 150.98502 2926 ft 259 kts 33°
2026-04-21 02:11 -33.80405 150.99664 2901 ft 260 kts 33°
2026-04-21 02:11 -33.78934 151.00949 2885 ft 260 kts 46°
2026-04-21 02:12 -33.78026 151.02794 2888 ft 260 kts 75°
2026-04-21 02:12 -33.77824 151.04936 2898 ft 260 kts 89°
2026-04-21 02:12 -33.77858 151.07075 2852 ft 249 kts 92°
2026-04-21 02:12 -33.77932 151.09119 2702 ft 242 kts 93°
2026-04-21 02:13 -33.78221 151.11075 2538 ft 235 kts 115°
2026-04-21 02:13 -33.79233 151.12512 2416 ft 226 kts 147°
2026-04-21 02:13 -33.80631 151.13243 2393 ft 214 kts 159°
2026-04-21 02:13 -33.81992 151.13951 2221 ft 212 kts 157°
2026-04-21 02:14 -33.83337 151.14549 2034 ft 198 kts 162°
2026-04-21 02:14 -33.84631 151.14983 1782 ft 186 kts 166°
2026-04-21 02:14 -33.85853 151.15320 1517 ft 175 kts 168°
2026-04-21 02:14 -33.86982 151.15607 1260 ft 161 kts 168°
2026-04-21 02:15 -33.88035 151.15877 1021 ft 146 kts 168°
2026-04-21 02:15 -33.89008 151.16132 825 ft 142 kts 168°
2026-04-21 02:15 -33.89973 151.16385 641 ft 142 kts 168°
2026-04-21 02:15 -33.90931 151.16635 456 ft 141 kts 167°
2026-04-21 02:16 -33.91886 151.16888 273 ft 141 kts 168°
2026-04-21 02:16 -33.92839 151.17134 91 ft 140 kts 168°
2026-04-21 02:16 -33.93755 151.17371 11 ft 119 kts 168°
2026-04-21 02:16 -33.94400 151.17537 23 ft 69 kts 167°
2026-04-21 02:17 -33.94744 151.17629 23 ft 43 kts 168°
2026-04-21 02:17 -33.94968 151.17688 22 ft 29 kts 169°
2026-04-21 02:17 -33.95093 151.17719 20 ft 14 kts 166°
2026-04-21 02:17 -33.95153 151.17802 19 ft 12 kts 96°
2026-04-21 02:18 -33.95142 151.17883 19 ft 8 kts 75°
2026-04-21 02:18 -33.95106 151.17934 20 ft 8 kts 22°
2026-04-21 02:18 -33.95058 151.17934 22 ft 6 kts 349°
2026-04-21 02:18 -33.95020 151.17921 23 ft 4 kts 346°
2026-04-21 02:19 -33.94978 151.17911 24 ft 9 kts 348°
2026-04-21 02:19 -33.94916 151.17896 25 ft 9 kts 348°
2026-04-21 02:19 -33.94853 151.17879 25 ft 9 kts 348°